Location: Anglesey
(53.1800°N, 4.2200°W)
Time: 13:02:47
(UTC+01:00)

ISS - Pass Details

Date: 11 October 2017
Orbit: 401 x 408 km, 51.6° (Epoch: 23 October)

Event Time Altitude Azimuth Distance (km) Brightness Sun altitude
Rises 20:47:09 0° 277° (W) 2,329 1.5 -21.2°
Reaches altitude 10° 20:49:56 10° 252° (WSW) 1,467 -0.3 -21.6°
Maximum altitude 20:51:46 14° 217° (SW) 1,236 -1.2 -21.9°
Enters shadow 20:52:12 14° 208° (SSW) 1,250 -1.3 -21.9°
